Regional Weather Roundup
Issued by NWS

Home | Current Version | Previous Version | Text Only | Print | Product List | Glossary Off
Versions: 1 2 3 4 5 6 7 8 9 10 11 12 13 14 15 16 17 18 19 20 21 22 23 24 25 26 27 28 29 30 31 32 33 34 35 36 37 38 39 40 41 42 43 44 45 46 47 48 49 50

000
ASUS45 KSLC 011410
RWRUT

UTAH REGIONAL WEATHER ROUNDUP
NATIONAL WEATHER SERVICE SALT LAKE CITY UT
800 AM MDT TUE SEP 01 2015

UTZ001>011-023>025-011500-

NORTHERN UTAH

CITY           SKY/WX    TMP DP  RH WIND       PRES   REMARKS
BRIGHAM CITY   SUNNY     57  42  59 CALM      30.00R
HILL AFB       SUNNY     67  40  37 E13       30.02R
LOGAN          SUNNY     50  42  74 N3        30.02R
OGDEN          SUNNY     66  41  40 S10       29.99R
PROVO AIRPORT  NOT AVBL
SALT LAKE CITY MOSUNNY   76  45  33 SE15      29.98R
VERNAL         SUNNY     58  47  66 CALM      30.16R
WENDOVER       PTCLDY    64  37  36 CALM      29.99R
HEBER CITY     PTSUNNY   55  45  67 CALM      30.14R
WEST JORDAN    SUNNY     73  45  35 S22       30.01R

$$

UTZ012>022-026-027-011500-

SOUTHERN/CENTRAL UTAH

CITY           SKY/WX    TMP DP  RH WIND       PRES   REMARKS
BLANDING       SUNNY     62  49  64 NE5       30.29R
BRYCE CANYON   MOSUNNY   50  46  86 SW5       30.32R
CEDAR CITY     SUNNY     68  47  46 SW13      30.15R
DELTA          SUNNY     69  45  41 S9        30.08R
HANKSVILLE     PTSUNNY   63  50  63 CALM      30.11R
MILFORD        SUNNY     64  46  52 SW12      30.10R
MOAB/CYNLANDS  SUNNY     66  53  63 CALM      30.10R
PRICE          MOSUNNY   62  49  62 CALM      30.18R
ST GEORGE      PTSUNNY   77  54  44 E15       30.00R
KANAB          SUNNY     63  57  82 N3        30.21R

$$

REGIONAL REPORTS     COLORADO/ARIZONA

CITY           SKY/WX    TMP DP  RH WIND       PRES   REMARKS
CRAIG, CO      SUNNY     52  46  80 W3        30.23R
GRAND JUNCTION MOSUNNY   62  52  69 SE10      30.14R
RIFLE          MOSUNNY   57  50  77 CALM      30.22R
MONTROSE       SUNNY     59  47  64 S7        30.24R
CORTEZ         SUNNY     58  48  69 CALM      30.24R
PAGE, AZ       SUNNY     70  55  59 SW3       30.11R
GRAND CANYON   SUNNY     53  51  93 CALM      30.27
KINGMAN        CLEAR     74  48  39 CALM      30.04R
FLAGSTAFF      MOSUNNY   54  51  90 CALM      30.30R

$$

REGIONAL REPORTS    NEVADA/IDAHO/WYOMING

CITY           SKY/WX    TMP DP  RH WIND       PRES   REMARKS
LAS VEGAS, NV  CLEAR     83  40  21 S10       29.86R
ELY            CLEAR     54  38  54 S14       30.15R
ELKO           PTCLDY    50  25  37 E7        30.05R
POCATELLO, ID  SUNNY     50  38  63 N5        30.01R
BURLEY         SUNNY     50  40  68 S5        29.99R
EVANSTON, WY   PTSUNNY   58  41  53 SW5       30.20R
ROCK SPRINGS   SUNNY     57  42  57 SE8       30.19R
KEMMERER       SUNNY     50  32  50 N6        30.20S

$$


USA.gov is the U.S. government's official web portal to all federal, state and local government web resources and services.